Total_Precipitation_Accumulation
1.49 1.92 2.52 3.05 3.61 4.40 4.86 4.89 4.49 3.65 3.05 2.55 2.30 2.07 1.84 1.67 1.44 1.19 1.00 0.86 0.82 0.75 0.77 0.73 0.74 0.79 0.75 0.76 0.91 1.03 1.05 0.89 1.07 1.19 1.02 0.83 0.71 0.68 0.68 0.62 0.61 0.62 0.67
1.32 1.92 2.64 3.30 3.66 4.03 4.24 4.16 3.64 2.84 2.31 2.00 1.86 1.66 1.51 1.24 1.09 0.91 0.81 0.73 0.69 0.65 0.63 0.63 0.61 0.59 0.62 0.64 0.68 0.79 0.80 0.72 0.85 0.97 0.94 0.74 0.65 0.56 0.40 0.44 0.45 0.46 0.59
1.52 2.25 3.01 3.54 3.60 3.46 3.13 2.77 2.47 2.05 1.86 1.76 1.58 1.37 1.29 1.10 0.90 0.67 0.56 0.53 0.49 0.46 0.44 0.41 0.42 0.44 0.47 0.50 0.56 0.63 0.67 0.63 0.59 0.70 0.81 0.66 0.54 0.48 0.42 0.38 0.40 0.48 0.54
1.64 2.33 2.84 2.91 2.88 2.62 2.20 1.96 1.85 1.71 1.58 1.48 1.37 1.12 0.92 0.83 0.69 0.59 0.51 0.45 0.38 0.37 0.34 0.31 0.31 0.31 0.32 0.40 0.40 0.48 0.59 0.61 0.50 0.51 0.58 0.58 0.56 0.51 0.46 0.41 0.38 0.43 0.47
1.21 1.42 1.58 1.59 1.63 1.53 1.58 1.63 1.63 1.62 1.52 1.42 1.30 1.15 0.91 0.80 0.74 0.72 0.64 0.57 0.46 0.39 0.35 0.34 0.31 0.30 0.28 0.29 0.32 0.40 0.51 0.57 0.52 0.48 0.52 0.61 0.61 0.52 0.50 0.45 0.44 0.47 0.40
0.69 0.73 0.74 0.79 0.96 0.96 1.05 1.16 1.19 1.29 1.37 1.33 1.15 1.03 0.89 0.81 0.76 0.69 0.57 0.50 0.43 0.38 0.36 0.36 0.38 0.35 0.32 0.31 0.30 0.32 0.38 0.50 0.59 0.57 0.54 0.58 0.60 0.50 0.46 0.39 0.37 0.44 0.42
0.49 0.58 0.63 0.70 0.81 0.70 0.71 0.82 0.88 0.89 0.96 0.96 0.89 0.86 0.86 0.79 0.70 0.60 0.51 0.43 0.33 0.31 0.31 0.31 0.34 0.36 0.37 0.36 0.35 0.34 0.33 0.41 0.51 0.53 0.55 0.54 0.54 0.56 0.56 0.52 0.44 0.47 0.51
0.35 0.39 0.43 0.51 0.58 0.49 0.49 0.60 0.68 0.67 0.67 0.67 0.67 0.67 0.73 0.64 0.58 0.59 0.51 0.43 0.36 0.31 0.30 0.29 0.29 0.31 0.35 0.39 0.42 0.38 0.38 0.41 0.43 0.42 0.55 0.59 0.53 0.62 0.66 0.69 0.73 0.66 0.67
0.21 0.24 0.24 0.28 0.35 0.37 0.39 0.45 0.54 0.56 0.52 0.53 0.54 0.53 0.60 0.61 0.57 0.55 0.49 0.43 0.46 0.38 0.34 0.31 0.32 0.33 0.36 0.39 0.42 0.40 0.40 0.43 0.43 0.46 0.56 0.62 0.67 0.71 0.67 0.77 0.85 0.88 0.81
0.16 0.14 0.14 0.16 0.21 0.27 0.36 0.42 0.48 0.51 0.48 0.48 0.48 0.42 0.48 0.57 0.63 0.58 0.50 0.49 0.50 0.42 0.39 0.37 0.36 0.38 0.38 0.38 0.41 0.41 0.46 0.50 0.54 0.60 0.64 0.65 0.69 0.78 0.72 0.76 0.83 0.86 0.91
0.16 0.13 0.09 0.10 0.14 0.20 0.28 0.33 0.42 0.50 0.50 0.49 0.55 0.56 0.52 0.49 0.56 0.59 0.60 0.61 0.61 0.51 0.47 0.46 0.46 0.45 0.45 0.47 0.52 0.53 0.56 0.63 0.72 0.78 0.80 0.82 0.84 0.87 0.84 0.89 0.89 0.84 0.91
0.13 0.10 0.09 0.10 0.14 0.17 0.22 0.28 0.34 0.45 0.47 0.49 0.55 0.59 0.61 0.53 0.54 0.58 0.61 0.63 0.69 0.70 0.65 0.60 0.56 0.48 0.46 0.51 0.58 0.65 0.62 0.64 0.70 0.91 1.11 1.12 1.11 1.03 0.94 1.01 0.98 0.93 1.06
0.15 0.13 0.16 0.17 0.18 0.21 0.24 0.32 0.39 0.46 0.54 0.54 0.56 0.59 0.63 0.60 0.58 0.66 0.68 0.66 0.74 0.81 0.81 0.76 0.66 0.55 0.48 0.47 0.52 0.62 0.64 0.70 0.82 0.97 1.10 1.20 1.30 1.19 1.09 1.07 1.05 1.06 1.14
0.16 0.12 0.14 0.17 0.19 0.25 0.31 0.40 0.57 0.53 0.49 0.55 0.59 0.61 0.64 0.69 0.72 0.75 0.79 0.78 0.81 0.84 0.88 0.85 0.80 0.72 0.59 0.52 0.53 0.57 0.63 0.77 0.94 0.99 0.92 1.00 1.24 1.34 1.28 1.15 1.08 1.11 1.16
0.17 0.16 0.16 0.17 0.25 0.30 0.34 0.40 0.48 0.60 0.62 0.71 0.75 0.78 0.88 0.96 1.00 1.03 1.02 0.96 0.95 0.94 0.99 1.02 0.98 0.90 0.77 0.62 0.64 0.71 0.64 0.70 0.78 0.80 0.74 0.75 0.91 1.15 1.31 1.23 1.16 1.16 1.14
0.21 0.22 0.24 0.24 0.25 0.27 0.33 0.41 0.44 0.55 0.68 0.85 0.93 0.98 1.13 1.23 1.32 1.42 1.49 1.41 1.33 1.35 1.38 1.33 1.24 1.13 0.86 0.78 0.72 0.69 0.69 0.74 0.77 0.76 0.75 0.66 0.60 0.68 0.89 1.08 1.21 1.27 1.19
0.34 0.33 0.35 0.34 0.31 0.31 0.35 0.41 0.48 0.61 0.77 0.96 1.13 1.24 1.39 1.52 1.64 1.72 1.76 1.71 1.72 1.76 1.77 1.66 1.48 1.33 1.18 0.97 0.80 0.70 0.67 0.68 0.70 0.73 0.73 0.60 0.51 0.59 0.62 0.77 0.89 1.01 1.06
0.36 0.35 0.42 0.44 0.40 0.44 0.50 0.58 0.69 0.83 1.01 1.17 1.34 1.52 1.55 1.58 1.65 1.69 1.66 1.68 1.78 1.82 1.78 1.68 1.55 1.47 1.35 1.12 0.88 0.78 0.66 0.69 0.71 0.73 0.74 0.71 0.64 0.62 0.66 0.70 0.71 0.74 0.80
0.36 0.36 0.42 0.49 0.55 0.56 0.61 0.69 0.73 0.84 1.03 1.19 1.28 1.35 1.46 1.56 1.60 1.61 1.66 1.70 1.71 1.61 1.49 1.44 1.44 1.41 1.41 1.24 0.99 0.89 0.82 0.87 0.86 0.84 0.82 0.80 0.74 0.73 0.62 0.63 0.67 0.68 0.72
0.36 0.38 0.40 0.44 0.53 0.61 0.63 0.65 0.73 0.85 1.04 1.19 1.22 1.23 1.36 1.48 1.55 1.58 1.61 1.57 1.54 1.50 1.46 1.39 1.39 1.39 1.38 1.28 0.99 0.91 0.88 0.96 0.96 0.97 0.94 0.85 0.75 0.69 0.59 0.59 0.67 0.66 0.67
0.37 0.39 0.45 0.45 0.48 0.57 0.62 0.70 0.80 0.88 0.94 1.03 1.12 1.19 1.34 1.45 1.47 1.53 1.53 1.53 1.52 1.54 1.54 1.47 1.38 1.35 1.33 1.29 1.01 0.88 0.85 0.96 1.06 1.03 0.98 0.94 0.81 0.63 0.57 0.57 0.63 0.63 0.68
0.40 0.41 0.48 0.58 0.60 0.61 0.62 0.67 0.70 0.71 0.77 0.83 0.89 0.94 1.04 1.17 1.23 1.32 1.33 1.37 1.36 1.32 1.30 1.28 1.21 1.18 1.20 1.13 0.99 0.79 0.71 0.80 0.96 1.05 1.07 1.07 0.90 0.66 0.54 0.46 0.43 0.41 0.41
0.45 0.45 0.49 0.53 0.56 0.61 0.66 0.74 0.73 0.70 0.70 0.71 0.72 0.73 0.78 0.94 1.10 1.16 1.14 1.16 1.17 1.16 1.13 1.12 1.10 1.06 1.03 0.96 0.75 0.60 0.51 0.56 0.72 0.88 0.98 0.91 0.76 0.63 0.51 0.42 0.38 0.35 0.34
0.32 0.38 0.42 0.49 0.54 0.53 0.56 0.63 0.67 0.68 0.72 0.73 0.73 0.74 0.77 0.87 1.12 1.25 1.19 1.13 1.11 1.08 1.06 1.01 1.01 1.04 1.07 1.02 0.82 0.62 0.48 0.51 0.64 0.73 0.75 0.75 0.74 0.72 0.67 0.55 0.45 0.38 0.39
0.26 0.29 0.33 0.36 0.37 0.37 0.41 0.45 0.50 0.58 0.62 0.60 0.58 0.58 0.65 0.77 0.97 1.12 1.13 1.00 0.97 0.96 0.96 0.93 0.90 0.86 0.84 0.82 0.71 0.60 0.59 0.66 0.74 0.75 0.82 0.83 0.89 0.92 0.92 0.85 0.76 0.70 0.67
0.26 0.29 0.33 0.36 0.38 0.39 0.44 0.50 0.57 0.64 0.66 0.62 0.57 0.56 0.58 0.67 0.86 1.07 1.12 0.92 0.75 0.73 0.73 0.68 0.65 0.62 0.56 0.52 0.52 0.50 0.50 0.56 0.61 0.61 0.77 0.89 0.98 1.06 1.08 1.09 1.02 0.93 0.85